View from above orbital plane
|
View from above satellite
|
Ground track
|
The orbit data is extracted from the following two-line orbital elements,
1 18583U 87097A 21015.45813381 -.00000032 00000-0 00000-0 0 9994
2 18583 13.8440 351.3649 0021235 235.3485 319.1982 0.98385992 5259
Epoch (UTC): | 15 January 2021 10:59:42 |
Eccentricity: | 0.0021235 |
inclination: | 13.8440° |
perigee height: | 36232 km |
apogee height: | 36414 km |
right ascension of ascending node: | 351.3649° |
argument of perigee: | 235.3485° |
revolutions per day: | 0.98385992 |
mean anomaly at epoch: | 319.1982° |
orbit number at epoch: | 525 |
The dashed part of the orbit path shows where the satellite is in the earth's shadow,
|
|